Regional Weather Roundup
Issued by NWS San Angelo, TX

Home | Current Version | Previous Version | Text Only | Print | Product List | Glossary On
Versions: 1 2 3 4 5 6 7 8 9 10 11 12 13 14 15 16 17 18 19 20 21 22 23 24 25 26 27 28 29 30 31 32 33 34 35 36 37 38 39 40 41 42 43 44 45 46 47 48 49 50
000
ASUS44 KSJT 261502
RWRSJT
WEST CENTRAL TEXAS REGIONAL WEATHER ROUNDUP
NATIONAL WEATHER SERVICE SAN ANGELO TX
1000 AM CDT TUE JUL 26 2016

NOTE: "FAIR" INDICATES FEW OR NO CLOUDS BELOW 12,000 FEET WITH NO
SIGNIFICANT WEATHER AND/OR OBSTRUCTIONS TO VISIBILITY.

TXZ049-054-064>066-071>073-076>078-098-099-113-114-127-128-139-140-
154-155-168>170-261600
...LOCATIONS ACROSS WEST CENTRAL TEXAS...

CITY           SKY/WX    TMP DP  RH WIND       PRES   REMARKS
SAN ANGELO     SUNNY     83  68  60 N6        30.03S
ABILENE        SUNNY     84  68  58 N8        30.04F
DYESS AFB      NOT AVBL
JUNCTION       SUNNY     81  71  71 CALM      30.01R
SWEETWATER     MOSUNNY   84  67  57 E7        30.08F
BROWNWOOD      NOT AVBL
COLEMAN        SUNNY     82  68  63 E5        30.03S
SONORA         SUNNY     82  68  61 CALM      30.06F
OZONA          FAIR      81  68  65 CALM      30.06F
BRADY          NOT AVBL
$$

TEXAS PANHANDLE/OKLAHOMA PANHANDLE

CITY           SKY/WX    TMP DP  RH WIND       PRES   REMARKS
AMARILLO       SUNNY     81  61  50 NW8       30.14F
BORGER         SUNNY     81  64  56 S6        30.11S
CANADIAN       SUNNY     82  72  71 SW5       30.06S
DALHART        SUNNY     81  61  50 N5        30.17S
DUMAS          SUNNY     82  61  49 NW5       30.15S
GUYMON         NOT AVBL
HEREFORD       SUNNY     83  58  43 N9        30.17S
PAMPA          SUNNY     83  69  61 SW3       30.12S
PERRYTON       SUNNY     80  71  73 S3        30.10F
$$

SOUTHERN PANHANDLE/SOUTH PLAINS/ROLLING PLAINS

CITY           SKY/WX    TMP DP  RH WIND       PRES   REMARKS
LUBBOCK        PTSUNNY   82  60  47 N10       30.12S
SNYDER           N/A     80  69  69 W5        30.06S
CHILDRESS      SUNNY     86  70  58 S7        30.03S
SEMINOLE       SUNNY     82  59  46 N12       30.13S
$$

PERMIAN BASIN

CITY           SKY/WX    TMP DP  RH WIND       PRES   REMARKS
MIDLAND        MOSUNNY   84  63  49 N10       30.08R
ODESSA         MOSUNNY   84  62  47 N12       30.10R
WINK           SUNNY     83  61  47 NE14      30.07S
$$

FAR WEST/SOUTHWEST MOUNTAINS/TRANS PECOS

CITY           SKY/WX    TMP DP  RH WIND       PRES   REMARKS
ALPINE         SUNNY     80  57  45 NE5       30.23S
DRYDEN           N/A     80  70  71 CALM      30.01S
EL PASO        MOSUNNY   78  59  51 N13       30.15S
FORT STOCKTON  SUNNY     82  62  50 CALM      30.08S
GUADALUPE PASS SUNNY     75  57  53 E23       30.25S
MARFA          SUNNY     80  58  46 N13       30.21R
PECOS          SUNNY     84  61  45 N7        30.07S
$$

DALLAS/FORT WORTH METROPLEX

CITY           SKY/WX    TMP DP  RH WIND       PRES   REMARKS
DFW AIRPORT    MOSUNNY   87  71  58 NE6       29.98R
FTW MEACHAM    SUNNY     87  70  56 NE5       29.98S
DAL-EXECUTIVE  SUNNY     86  71  60 N5        29.98R
GRAND PRAIRIE  SUNNY     82  72  69 E3        29.99F
ADDISON        SUNNY     86  73  66 CALM      30.00S
MESQUITE       SUNNY     82  75  78 CALM      29.98S
LANCASTER      SUNNY     85  73  68 CALM      29.99S
$$

NORTH CENTRAL TEXAS

CITY           SKY/WX    TMP DP  RH WIND       PRES   REMARKS
SHRMAN/DENISON NOT AVBL
GAINESVILLE    NOT AVBL
BRIDGEPORT     SUNNY     83  73  71 E3        30.01F
DENTON         SUNNY     86  73  65 VRB3      29.98S
WAXAHACHIE     SUNNY     82  73  72 E3        30.00R
GRANBURY       SUNNY     85  70  60 CALM      30.01S
$$

WESTERN NORTH TEXAS

CITY           SKY/WX    TMP DP  RH WIND       PRES   REMARKS
WICHITA FALLS  PTSUNNY   83  71  67 SE7       30.00R
VERNON         CLOUDY    82  68  63 SE6       30.03R
BRECKENRIDGE   NOT AVBL
COMANCHE       SUNNY     81  72  74 E3        30.03S
$$

CENTRAL AND SOUTH CENTRAL TEXAS

CITY           SKY/WX    TMP DP  RH WIND       PRES   REMARKS
AUSTIN/BERGSTM PTSUNNY   81  75  82 E9        29.96S
WACO           MOSUNNY   82  73  74 VRB3      29.97S
HILLSBORO      SUNNY     82  71  69 NE5       29.98F
TEMPLE         PTSUNNY   81  74  79 NE5       29.98S
KILLEEN-GRAY   NOT AVBL
FORT HOOD      NOT AVBL
GEORGETOWN     CLOUDY    79  72  78 NE5       29.98S
LAGO VISTA     CLOUDY    79  74  84 CALM      30.00S
SAN MARCOS     PTSUNNY   79  75  89 NE6       29.99S
NEW BRAUNFELS  CLOUDY    79  75  87 E6        29.95S
RANDOLPH AFB   NOT AVBL
SAN ANTONIO    CLOUDY    79  73  82 NE6       29.97S
STINSON        CLOUDY    80  74  81 NE8       29.94S
PLEASANTON     NOT AVBL
LA GRANGE      NOT AVBL
GIDDINGS       PTSUNNY   80  73  77 E5        30.01S
$$

EAST TEXAS

CITY           SKY/WX    TMP DP  RH WIND       PRES   REMARKS
PARIS          SUNNY     84  68  58 N6        29.98S
CLARKSVILLE    NOT AVBL
TYLER          SUNNY     86  72  62 VRB5      29.96F
LONGVIEW       MOSUNNY   84  74  71 E7        29.96S
PALESTINE      PTSUNNY   81  76  82 CALM      29.99R
NACOGDOCHES    SUNNY    N/A N/A N/A E5        29.95S
$$

TEXAS HILL COUNTRY AND EDWARDS PLATEAU

CITY           SKY/WX    TMP DP  RH WIND       PRES   REMARKS
LLANO          PTSUNNY   81  81 100 E7        30.02S
HORSESHOE BAY  PTSUNNY   80  74  83 NE3       29.99S
KERRVILLE      PTSUNNY   78  73  84 E6        30.01S
FREDERICKSBRG  CLOUDY    77  69  76 E6        30.01S
ROCKSPRINGS    NOT AVBL
HONDO          CLOUDY    80  73  79 E10       29.98S
UVALDE         CLOUDY    80  70  70 E7        29.97S
DEL RIO        SUNNY     83  69  62 VRB6      29.94S
$$

SOUTHEAST TEXAS

CITY           SKY/WX    TMP DP  RH WIND       PRES   REMARKS
COLLEGE STN    PTSUNNY   80  74  81 NE7       29.97S
CALDWELL       SUNNY     82  72  69 N5        30.00S
CROCKETT       NOT AVBL
BRENHAM        PTSUNNY   81  75  80 NE6       29.97S
HUNTSVILLE     CLOUDY    77  74  90 CALM      29.97S
CONROE         CLOUDY    77  75  93 E3        29.97R
HOUSTON BUSH   PTSUNNY   81  76  84 E5        29.95S
HOUSTON HOBBY  PTSUNNY   79  75  87 SW5       29.94R
PERLAND        MOSUNNY   83  73  72 VRB3      29.96R
WHARTON        MOSUNNY   77  76  97 CALM      29.95F
$$

THE UPPER TEXAS COAST

CITY           SKY/WX    TMP DP  RH WIND       PRES   REMARKS
ORANGE         MOSUNNY   79  76  90 CALM      29.96R
PORT ARTHUR    SUNNY     84  74  71 CALM      29.94R
GALVESTON      CLOUDY    83  76  79 N3        29.96S
ANGLETON       LGT RAIN  80  76  87 CALM      29.95S
BAY CITY       CLOUDY    78  76  96 CALM      29.94F
$$

TEXAS COASTAL BEND, RIO GRANDE PLAINS DEEP SOUTH TEXAS

CITY           SKY/WX    TMP DP  RH WIND       PRES   REMARKS
VICTORIA       CLOUDY    77  75  93 E5        29.95R
BEEVILLE       CLOUDY    82  80  94 S3        29.93S
ROCKPORT       CLOUDY    84  77  79 CALM      29.93R
PORT ARANSAS   CLOUDY    86  77  74 S12       29.92R
PORT LAVACA    LGT RAIN  76  74  94 CALM      29.95R
CORPUS CHRISTI PTSUNNY   86  76  71 S13       29.91S
KINGSVILLE NAS PTSUNNY   87  78  74 S10       29.91S
COTULLA        CLOUDY    79  75  87 NE7       29.92S
LAREDO         CLOUDY    86  75  69 E8        29.91S
BROWNSVILLE    MOSUNNY   89  75  63 S18       29.91R
PORT ISABEL    PTSUNNY   88  75  65 S15G21    29.91R
HEBBRONVILLE   CLOUDY    85  73  66 S9        29.92F
MCALLEN        CLOUDY    89  73  59 S14       29.91R
WESLACO        MOSUNNY   82  24  11 S14       29.90S
FALFURRIAS     SUNNY     88  72  58 S16       29.90S
EDINBURG       MOSUNNY   90  72  55 S12       29.91R
$$



USA.gov is the U.S. government's official web portal to all federal, state and local government web resources and services.